AirNav   ProFlight Series 2 Aviation Headset
 
 602 users online  

W94 Camp Peary Landing Strip Airport
Williamsburg, Virginia, USA

GOING TO WILLIAMSBURG?


FAA INFORMATION EFFECTIVE 16 JULY 2020

Location

FAA Identifier: W94
Lat/Long: 37-18-46.0594N 076-38-17.5821W
37-18.767657N 076-38.293035W
37.3127943,-76.6382172
(estimated)
Elevation: 40.8 ft. / 12 m (estimated)
Variation: 11W (2010)
From city: 3 miles NE of WILLIAMSBURG, VA
Time zone: UTC -4 (UTC -5 during Standard Time)
Zip code: 23188

Airport Operations

Airport use: Private use, THIS FLD IS DOD RESTRICTED.
Activation date: 07/1958
Control tower: no
ARTCC: WASHINGTON CENTER
FSS: LEESBURG FLIGHT SERVICE STATION
NOTAMs facility: DCA (NOTAM-D service available)
Attendance: MON-FRI 0800-1630
Wind indicator: yes
Segmented circle: no
Lights: SS-SR

Airport Communications

NORFOLK APPROACH: 125.7
NORFOLK DEPARTURE: 125.7
WX AWOS-3 at JGG (6 nm SW): 120.625 (757-220-8810)
WX ASOS at PHF (13 nm SE): PHONE 757-874-3682
WX AWOS-3 at FYJ (14 nm NW): 132.825 (804-785-2307)
WX AWOS-3 at W75 (20 nm NE): 118.45 (804-758-8592)
  • APCH/DEP SVC PRVDD BY ORF APCH ON 125.7/335.625.

Nearby radio navigation aids

VOR radial/distance  VOR name  Freq  Var
HCMr164/8.9HARCUM VORTAC108.8007W
HPWr098/22.8HOPEWELL VORTAC112.0006W
CCVr276/30.6CAPE CHARLES VORTAC112.2010W
ORFr327/32.8NORFOLK VORTAC116.9007W
RICr118/34.4RICHMOND VORTAC114.1009W

 
NDB name  Hdg/Dist  Freq  Var  ID
WAKEFIELD052/26.327411WAKQ .- -.- --.-

Airport Services

Airframe service: NONE
Powerplant service: NONE

Runway Information

Runway 5/23

Dimensions: 5018 x 151 ft. / 1529 x 46 m
FLD CLSD TO ALL CIV & MIL ACFT WO PRIOR APVL OF BASE COMDR.
Surface: asphalt
Runway edge lights: low intensity
RUNWAY 5  RUNWAY 23
Latitude: 37-18.448248N37-19.087063N
Longitude: 076-38.621737W076-37.964333W
Elevation: 40.8 ft.31.3 ft.
Traffic pattern: leftleft
Visual slope indicator: 4-light PAPI on left4-light PAPI on left
Touchdown point: yes, no lightsyes, no lights

Airport Ownership and Management from official FAA records

Ownership: U.S. Army
Owner: US ARMY AERONAUTICAL SVCS AGENCY
FT BELVOIR, VA 22060
Manager: DAVID J CROMLEY
AFETA-CAMP PEARY
WILLIAMSBURG, VA 23185
Phone 804-229-2121
COLONEL INFANTRY.

Additional Remarks

CAUTION: FLD RSTD, PPR BY WRITTEN REQ TO BASE COMDR, ATTN: AIR OPS. EXC WHEN OPR UNDER PRIOR PERMS AUTH, PILOTS SHOULD MAINT AT LEAST 3000 FT ABV THE ARPT ELEV WITHIN 5 NM.
FOR CD CTC NORFOLK APCH AT 757-464-0757.

Instrument Procedures

NOTE: All procedures below are presented as PDF files. If you need a reader for these files, you should download the free Adobe Reader.

NOT FOR NAVIGATION. Please procure official charts for flight.
FAA instrument procedures published for use from 16 July 2020 at 0901Z to 13 August 2020 at 0900Z.

 
IAPs - Instrument Approach Procedures
RNAV (GPS) RWY 05   download (196KB)
RNAV (GPS) RWY 23   download (129KB)
VOR-A   download (122KB)
NOTE: Special Take-Off Minimums/Departure Procedures apply   download (140KB)

Other nearby airports with instrument procedures:

KJGG - Williamsburg-Jamestown Airport (6 nm SW)
KFAF - Felker Army Airfield (11 nm S)
KPHF - Newport News/Williamsburg International Airport (13 nm SE)
KFYJ - Middle Peninsula Regional Airport (14 nm NW)
KLFI - Langley Air Force Base (19 nm SE)
W75 - Hummel Field Airport (20 nm NE)
 
Loc | Ops | Rwys | IFR | FBO | Links
Com | Nav | Svcs | Stats | Notes
Area around W94 (Camp Peary Landing Strip Airport)
 
Road maps at: MapQuest Bing Google
 
Aerial photo
WARNING: Photo may not be current or correct
Aerial photo of W94 (Camp Peary Landing Strip Airport)
Photo by Glenn Woodell, of NASA Langley Research Center
Photo taken 10-Apr-2014
looking south.

Do you have a better or more recent aerial photo of Camp Peary Landing Strip Airport that you would like to share? If so, please send us your photo.

 
Sectional chart

 
Airport distance calculator
Flying to Camp Peary Landing Strip Airport? Find the distance to fly.

From to W94

Sunrise and sunset
Times for 03-Aug-2020
 Local
(UTC-4)
 Zulu
(UTC)
Morning civil twilight05:4609:46
Sunrise06:1410:14
Sunset20:1100:11
Evening civil twilight20:3900:39

Current date and time
Zulu (UTC)  03-Aug-2020 11:22:25
Local (UTC-4)  03-Aug-2020 07:22:25
 
METAR
KJGG 
6nm SW 
031055Z AUTO 00000KT 10SM 26/24 A3007 RMK AO1
KFAF 
12nm S 
031056Z 22004KT 10SM SCT018 26/24 A3005 RMK AO2A SLP179 T02570244 $
KPHF 
13nm SE 
031054Z AUTO 22008KT 9SM CLR 27/23 A3007 RMK AO2 SLP182 T02670233
KFYJ 
14nm NW 
031055Z AUTO 20004KT 5SM SCT012 25/23 A3007 RMK AO1 T02510230
KW75 
20nm NE 
031055Z AUTO 20005KT 5SM CLR 25/25 A3005 RMK AO1 T02500250
KLFI 
20nm SE 
031056Z 21011KT 9SM OVC012 26/26 A3008 RMK AO2A OVC V BKN SLP192 T02610261 $
TAF
KFAF 
12nm S 
031000Z 0310/0416 21009KT 9999 SCT009 QNH3003INS TEMPO 0310/0312 BKN009 BECMG 0312/0313 21009KT 9999 SCT010 QNH3003INS BECMG 0317/0318 20010G15KT 8000 -SHRA FEW060 BKN075 QNH3004INS TEMPO 0319/0323 20015G20KT 4800 -TSRA BKN020CB BECMG 0322/0323 23010G15KT 9999 NSW BKN060 OVC100 QNH2999INS BECMG 0403/0404 08012G18KT 4800 -TSRA FEW012CB BKN020 QNH2982INS BECMG 0408/0409 09015G25KT 1600 TSRA OVC015CB QNH2959INS BECMG 0410/0411 10020G35KT 1600 TSRA OVC010CB QNH2917INS TEMPO 0411/0416 12030G45KT 5500
KPHF 
13nm SE 
030956Z 0310/0406 21010KT P6SM BKN010 FM031500 21008KT P6SM SCT030 FM031800 19009KT P6SM VCSH SCT040 BKN080 FM040300 16006KT P6SM VCSH BKN030
KLFI 
20nm SE 
030954Z 0309/0415 21009KT 9999 SCT015 BKN140 QNH3001INS BECMG 0318/0319 19015KT 9000 -SHRA SCT035 BKN050 QNH3004INS TEMPO 0318/0322 25012G18KT 9000 -TSRA SCT050 BKN075CB BECMG 0321/0322 25006KT 9999 NSW SCT065 BKN080 QNH3003INS BECMG 0403/0404 25020G25KT 8000 TSRA OVC015CB QNH2942INS TEMPO 0410/0415 25030G45KT TX29/0317Z TN25/0309Z
NOTAMs
Click for the latest NOTAMs
NOTAMs are issued by the DoD/FAA and will open in a separate window not controlled by AirNav.

 

 
 

Would you like to see your business listed on this page?

 If your business provides an interesting product or service to pilots, flight crews, aircraft, or users of the Camp Peary Landing Strip Airport, you should consider listing it here.  To start the listing process, click on the button below
 
Add a business
 

Other Pages about Camp Peary Landing Strip Airport

Update a link
 
Copyright © AirNav, LLC. All rights reserved. Privacy Policy  Contact